User: anonymous   Login
Location: Altoona
(40.5167°N, 78.4000°W)
Time: 05:23:21
(UTC-05:00)
Language:

SL-16 R/B - Orbit

View from above orbital plane
View from above orbital plane
View from above satellite
View from above satellite

Ground track
Ground track

The orbit data is extracted from the following two-line orbital elements,

1 31793U 07029B   19049.84391439 +.00000075 +00000-0 +64142-4 0  9998
2 31793 070.9763 184.3378 0002696 274.2284 197.6968 14.14414491601166
Epoch (UTC): 18 February 2019 20:15:14
Eccentricity: 0.0002696
inclination: 70.9763°
perigee height: 842 km
apogee height: 846 km
right ascension of ascending node: 184.3378°
argument of perigee: 274.2284°
revolutions per day: 14.14414491
mean anomaly at epoch: 197.6968°
orbit number at epoch: 60116

The dashed part of the orbit path shows where the satellite is in the earth's shadow,  

DLR